KE9LZ Weather Reports


Display with metric or nautical units.
time (UTC)temp
F
wind
direction
speed
MPH
gust
MPH
rain 1hr
in
rain 24hr
in
rain mn
in
humidity
%
barometer
mb
20260510032003 49 45 6.0 9.0 0.00 0.00 0.00 38 1016.5
20260510031003 49 36 5.0 7.0 0.00 0.00 0.00 38 1016.4
20260510030003 50 40 5.0 14.0 0.00 0.00 0.00 38 1016.5
20260510025003 50 358 10.0 15.0 0.00 0.00 0.00 37 1016.3
20260510024003 50 25 5.0 14.0 0.00 0.00 0.00 39 1016.3
20260510023002 51 17 5.0 12.0 0.00 0.00 0.00 39 1016.1
20260510022003 51 13 10.0 20.0 0.00 0.00 0.00 38 1016.2
20260510021003 51 357 9.0 20.0 0.00 0.00 0.00 38 1015.8
20260510020003 52 348 8.0 17.0 0.00 0.00 0.00 39 1015.5
20260510015003 53 313 8.0 22.0 0.00 0.00 0.00 38 1015.2
20260510014003 54 352 7.0 18.0 0.00 0.00 0.00 37 1014.6
20260510013003 54 350 12.0 23.0 0.00 0.00 0.00 35 1014.1
20260510012003 55 9 9.0 20.0 0.00 0.00 0.00 34 1013.6
20260510011003 55 17 7.0 15.0 0.00 0.00 0.00 34 1013.5
20260510010003 56 11 7.0 13.0 0.00 0.00 0.00 33 1013.2
20260510005003 56 345 6.0 13.0 0.00 0.00 0.00 32 1012.9
20260510004003 57 1 6.0 17.0 0.00 0.00 0.00 31 1012.8
20260510003003 58 337 9.0 21.0 0.00 0.00 0.00 31 1012.5
20260510002003 58 338 9.0 17.0 0.00 0.00 0.00 30 1012.5
20260510001003 59 17 6.0 18.0 0.00 0.00 0.00 31 1012.3
20260510000003 59 336 5.0 16.0 0.00 0.00 0.00 30 1011.9
20260509235003 59 317 6.0 16.0 0.00 0.00 0.00 30 1011.8
20260509234002 60 338 10.0 21.0 0.00 0.00 0.00 29 1011.4
20260509233003 60 18 5.0 16.0 0.00 0.00 0.00 29 1011.1
20260509232003 61 353 8.0 13.0 0.00 0.00 0.00 28 1011.3
20260509225003 59 310 9.0 21.0 0.00 0.00 0.00 30 1010.7
20260509224003 61 307 11.0 23.0 0.00 0.00 0.00 28 1010.6
20260509223003 60 310 5.0 16.0 0.00 0.00 0.00 30 1010.4
20260509222004 59 285 10.0 21.0 0.00 0.00 0.00 30 1010.4
20260509221003 60 303 7.0 15.0 0.00 0.00 0.00 31 1010.1
20260509220003 60 337 9.0 15.0 0.00 0.00 0.00 32 1010.0
20260509214003 61 323 7.0 18.0 0.00 0.00 0.00 32 1009.8
20260509213003 61 294 9.0 21.0 0.00 0.00 0.00 33 1009.5
20260509212003 60 291 12.0 25.0 0.00 0.00 0.00 33 1009.6
20260509211003 61 313 11.0 24.0 0.00 0.00 0.00 34 1009.6
20260509210004 60 332 11.0 23.0 0.00 0.00 0.00 33 1009.3
20260509205003 59 320 11.0 22.0 0.00 0.00 0.00 38 1009.3
20260509204003 59 302 10.0 21.0 0.00 0.00 0.00 38 1009.0
20260509203003 59 313 12.0 28.0 0.00 0.00 0.00 39 1009.0
20260509202003 59 332 12.0 21.0 0.00 0.00 0.00 39 1008.9
20260509200003 59 298 7.0 22.0 0.00 0.00 0.00 40 1008.6
20260509195003 60 297 13.0 26.0 0.00 0.00 0.00 41 1008.6
20260509194003 60 341 9.0 25.0 0.00 0.00 0.00 42 1008.5
20260509193003 60 308 9.0 25.0 0.00 0.00 0.00 42 1008.3
20260509191003 58 289 9.0 21.0 0.00 0.00 0.00 46 1008.4
20260509190003 59 287 13.0 20.0 0.00 0.00 0.00 45 1008.1
20260509184003 58 280 10.0 22.0 0.00 0.00 0.00 47 1008.1
20260509183003 60 282 6.0 26.0 0.00 0.00 0.00 48 1007.7
20260509181003 58 324 7.0 20.0 0.00 0.00 0.00 52 1007.7
20260509180003 57 254 7.0 25.0 0.00 0.00 0.00 53 1007.5
20260509175003 59 264 9.0 17.0 0.00 0.00 0.00 51 1007.7
20260509174003 57 308 9.0 17.0 0.00 0.00 0.00 55 1007.8
20260509173003 58 289 13.0 24.0 0.00 0.00 0.00 57 1007.5
20260509172003 57 232 9.0 26.0 0.00 0.00 0.00 57 1007.5
20260509171003 56 234 9.0 23.0 0.00 0.00 0.00 59 1007.6
20260509170003 55 302 9.0 23.0 0.00 0.00 0.00 61 1007.6
20260509165003 55 260 11.0 22.0 0.00 0.00 0.00 61 1007.4
20260509163003 54 297 10.0 21.0 0.00 0.00 0.00 61 1007.2
20260509161003 54 274 6.0 21.0 0.00 0.00 0.00 61 1007.4
20260509160003 53 297 12.0 20.0 0.00 0.00 0.00 62 1007.4
20260509155003 53 294 8.0 18.0 0.00 0.00 0.00 62 1007.0
20260509154003 53 288 8.0 18.0 0.00 0.00 0.00 60 1007.1
20260509153004 53 306 4.0 15.0 0.00 0.00 0.00 61 1007.0
20260509152003 53 318 7.0 17.0 0.00 0.00 0.00 57 1006.7
20260509151004 54 318 5.0 13.0 0.00 0.00 0.00 51 1006.8
20260509150003 54 16 4.0 14.0 0.00 0.00 0.00 51 1006.7
20260509145003 54 314 5.0 14.0 0.00 0.00 0.00 51 1006.5
20260509144003 53 245 5.0 10.0 0.00 0.00 0.00 51 1006.8
20260509143003 53 287 7.0 13.0 0.00 0.00 0.00 50 1006.6
20260509142003 53 295 5.0 9.0 0.00 0.00 0.00 50 1006.7
20260509140003 53 271 3.0 14.0 0.00 0.00 0.00 51 1006.5
20260509135003 53 277 2.0 16.0 0.00 0.00 0.00 51 1006.5
20260509134003 53 266 6.0 12.0 0.00 0.00 0.00 51 1006.1
20260509133004 53 354 3.0 8.0 0.00 0.00 0.00 53 1006.2
20260509132003 53 266 5.0 10.0 0.00 0.00 0.00 54 1005.9
20260509131003 52 249 3.0 6.0 0.00 0.00 0.00 54 1005.7
20260509130002 52 191 4.0 8.0 0.00 0.00 0.00 54 1005.5
20260509125003 52 222 3.0 6.0 0.00 0.00 0.00 54 1005.4
20260509123003 52 195 2.0 6.0 0.00 0.00 0.00 56 1005.0
20260509122003 52 191 3.0 5.0 0.00 0.00 0.00 56 1005.1
20260509121003 52 144 3.0 5.0 0.00 0.00 0.00 56 1004.4
20260509120003 52 79 3.0 5.0 0.00 0.00 0.00 56 1003.9
20260509115003 52 225 2.0 6.0 0.00 0.00 0.00 56 1004.2
20260509114003 52 240 2.0 8.0 0.00 0.00 0.00 56 1003.9
20260509113003 52 276 4.0 9.0 0.00 0.00 0.00 56 1003.8
20260509112003 52 180 2.0 6.0 0.00 0.00 0.00 58 1003.7
20260509111003 51 352 3.0 7.0 0.00 0.00 0.00 59 1003.3
20260509110003 51 18 2.0 6.0 0.00 0.00 0.00 64 1003.3
20260509105003 51 187 3.0 7.0 0.00 0.00 0.00 65 1003.1
20260509104003 51 146 3.0 10.0 0.00 0.00 0.00 68 1002.9
20260509103003 51 217 4.0 8.0 0.00 0.00 0.00 70 1002.7
20260509102003 51 173 4.0 6.0 0.00 0.00 0.00 72 1002.6
20260509101004 51 187 2.0 8.0 0.00 0.00 0.00 74 1002.7
20260509100003 51 180 3.0 8.0 0.00 0.00 0.00 73 1002.8
20260509095003 51 206 4.0 9.0 0.00 0.00 0.00 72 1002.9
20260509094003 51 193 5.0 8.0 0.00 0.00 0.00 72 1002.2
20260509092003 52 151 4.0 7.0 0.00 0.00 0.00 70 1002.4
20260509091003 52 185 4.0 6.0 0.00 0.00 0.00 69 1002.6
20260509085003 52 174 5.0 7.0 0.00 0.00 0.00 68 1002.6
20260509084003 51 158 2.0 5.0 0.00 0.00 0.00 68 1002.7
20260509083003 50 124 3.0 5.0 0.00 0.00 0.00 68 1002.7
20260509082003 50 110 3.0 3.0 0.00 0.00 0.00 68 1002.9
20260509081004 50 104 3.0 5.0 0.00 0.00 0.00 67 1003.0
20260509080003 51 119 3.0 6.0 0.00 0.00 0.00 66 1002.9
20260509075003 50 99 3.0 5.0 0.00 0.00 0.00 66 1003.1
20260509074004 51 117 2.0 5.0 0.00 0.00 0.00 65 1003.3
20260509072003 52 123 3.0 6.0 0.00 0.00 0.00 63 1003.5
20260509071003 52 138 3.0 6.0 0.00 0.00 0.00 62 1003.7
20260509063004 53 126 5.0 6.0 0.00 0.00 0.00 56 1004.1
20260509062003 54 140 5.0 7.0 0.00 0.00 0.00 55 1004.4
20260509061003 54 116 5.0 7.0 0.00 0.00 0.00 55 1004.5
20260509060003 54 108 4.0 7.0 0.00 0.00 0.00 54 1004.8
20260509055003 54 115 4.0 7.0 0.00 0.00 0.00 53 1005.1
20260509054003 55 114 4.0 8.0 0.00 0.00 0.00 51 1005.3
20260509053004 55 131 4.0 9.0 0.00 0.00 0.00 51 1005.2
20260509052003 55 88 3.0 14.0 0.00 0.00 0.00 51 1005.3
20260509051003 55 87 4.0 5.0 0.00 0.00 0.00 53 1005.4
20260509050003 55 54 2.0 6.0 0.00 0.00 0.00 51 1005.6
20260509045004 55 139 3.0 7.0 0.00 0.00 0.00 52 1005.6
20260509044003 54 112 4.0 6.0 0.00 0.00 0.00 56 1005.8
20260509043003 55 212 4.0 7.0 0.00 0.00 0.00 54 1005.7
20260509041003 55 61 3.0 5.0 0.00 0.00 0.00 50 1006.1
20260509040004 56 105 1.0 6.0 0.00 0.00 0.00 49 1006.4
20260509034004 54 199 2.0 6.0 0.00 0.00 0.00 47 1006.5
20260509033003 54 98 2.0 5.0 0.00 0.00 0.00 47 1006.6